This is the latest recevied weather packets stored in our database for station/object KD6VEX-1. If no packets are shown the sender has not sent any weather packets the latest 10 day(s).
| Time | Temp. | Humidity | Pressure | Rain* | Wind** | Luminosity | Snow |
|---|---|---|---|---|---|---|---|
| 1777390762 | 8.89° C | 84% | 1019.1 hPa | 0 mm | - | - | - |
| 1777389562 | 7.78° C | 88% | 1019.1 hPa | 0 mm | - | - | - |
| 1777389261 | 7.78° C | 88% | 1019.1 hPa | 0 mm | - | - | - |
| 1777388961 | 7.22° C | 89% | 1019.1 hPa | 0 mm | - | - | - |
| 1777388361 | 7.22° C | 90% | 1018.9 hPa | 0 mm | - | - | - |
| 1777388061 | 6.67° C | 91% | 1018.9 hPa | 0 mm | - | - | - |
| 1777387761 | 6.67° C | 92% | 1018.9 hPa | 0 mm | - | - | - |
| 1777387461 | 6.11° C | 93% | 1018.9 hPa | 0 mm | - | - | - |
| 1777386864 | 5.56° C | 94% | 1018.7 hPa | 0 mm | - | - | - |
| 1777386561 | 5.56° C | 94% | 1018.7 hPa | 0 mm | - | - | - |
| 1777385661 | 5° C | 94% | 1018.6 hPa | 0 mm | - | - | - |
| 1777385361 | 5° C | 95% | 1018.7 hPa | 0 mm | - | - | - |
| 1777385061 | 4.44° C | 95% | 1018.5 hPa | 0 mm | - | - | - |
| 1777384761 | 4.44° C | 94% | 1018.4 hPa | 0 mm | - | - | - |
| 1777384161 | 4.44° C | 94% | 1018.3 hPa | 0 mm | - | - | - |
| 1777383861 | 4.44° C | 94% | 1018.3 hPa | 0 mm | - | - | - |
| 1777383561 | 4.44° C | 94% | 1018.2 hPa | 0 mm | - | - | - |
| 1777383261 | 3.89° C | 94% | 1018.1 hPa | 0 mm | - | - | - |
| 1777382961 | 3.89° C | 94% | 1018 hPa | 0 mm | - | - | - |
| 1777382361 | 3.89° C | 94% | 1017.9 hPa | 0 mm | - | - | - |
| 1777381761 | 3.89° C | 93% | 1017.8 hPa | 0 mm | - | - | - |
| 1777381461 | 4.44° C | 94% | 1017.8 hPa | 0 mm | - | - | - |
| 1777381161 | 4.44° C | 93% | 1017.7 hPa | 0 mm | - | - | - |
| 1777379361 | 4.44° C | 93% | 1017.7 hPa | 0 mm | - | - | - |
| 1777378761 | 4.44° C | 93% | 1017.8 hPa | 0 mm | - | - | - |
* Rain latest hour (hover to see other rain measurements)
** Current wind speed in m/s (hover to see current wind gust speed)